Regional Weather Roundup
Issued by NWS Northern Indiana

Home | Current Version | Previous Version | Text Only | Print | Product List | Glossary On
Versions: 1 2 3 4 5 6 7 8 9 10 11 12 13 14 15 16 17 18 19 20 21 22 23 24 25 26 27 28 29 30 31 32 33 34 35 36 37 38 39 40 41 42 43 44 45 46 47 48 49 50
000
ASUS43 KIWX 162310
RWRIWX

KIWX WEATHER ROUNDUP
NATIONAL WEATHER SERVICE NORTHERN INDIANA
600 PM EST SAT DEC 16 2017

NOTE: "FAIR" INDICATES FEW OR NO CLOUDS BELOW 12,000 FEET WITH NO
SIGNIFICANT WEATHER AND/OR OBSTRUCTIONS TO VISIBILITY.

* THESE STATIONS ARE NOT UNDER NWS QUALITY CONTROL. THEY ALSO MAY NOT
  REPORT WEATHER SUCH AS PRECIPITATION OR FOG.

INZ001>027-170000-
NORTHERN INDIANA

CITY           SKY/WX    TMP DP  RH WIND       PRES   REMARKS
GARY*          CLEAR     39  25  56 CALM      29.98R
VALPARAISO     CLEAR     42  27  55 CALM      29.99R
MICHIGAN CITY* CLEAR     36  28  75 CALM      30.00R
LAPORTE*       CLEAR     32  26  78 E3        29.99R
KNOX*          CLEAR     37  28  70 CALM      29.98R
SOUTH BEND     CLEAR     38  28  67 E6        30.00R
ELKHART*       CLEAR     34  27  75 E3        30.00R
GOSHEN         CLEAR     35  27  72 E3        30.00R
MONTICELLO*    CLEAR     43  27  52 S6        29.99R
LOGANSPORT*    CLEAR     36  27  69 S6        30.01R
ROCHESTER*     CLEAR     41  30  65 CALM      30.00R
WARSAW*        CLEAR     37  28  70 CALM      30.00R
AUBURN*        CLEAR     34  28  80 CALM      30.02R
FORT WAYNE     CLEAR     37  29  72 S3        30.01R
HUNTINGTON*    CLEAR     37  26  63 CALM      30.00R
PERU/GRISSOM   CLEAR     36  26  66 CALM      29.99R
MARION*        LGT SNOW  37  27  65 SW3       30.01R

$$
INZ028>050-170000-
CENTRAL INDIANA

CITY           SKY/WX    TMP DP  RH WIND       PRES   REMARKS
LAFAYETTE      CLEAR     44  29  55 SW5       30.00R
KOKOMO*        CLEAR     38  26  62 S6        30.01R
MUNCIE*        CLEAR     46  26  45 SW5       30.01R
INDIANAPOLIS   PTCLDY    45  28  51 SW12      30.02R

$$
MIZ043>046-050>051-056>058-064>065-071>073-077>080-170000-
SOUTHWEST LOWER MICHIGAN

CITY           SKY/WX    TMP DP  RH WIND       PRES   REMARKS
BATTLE CREEK   CLOUDY    33  26  75 E7        30.02R WCI  27
BENTON HARBOR  CLEAR     36  25  64 E3        30.00R
COLDWATER*     CLEAR     33  26  76 CALM      30.01R
HILLSDALE*     CLEAR     30  23  74 CALM      30.01R
HOLLAND        MOCLDY    27  22  81 E7        30.04R WCI  19
GRAND RAPIDS   CLOUDY    24  19  81 E10       30.05R WCI  14
KALAMAZOO      CLEAR     34  25  69 SE3       30.02R
STURGIS*       CLEAR     33  27  77 E5        30.00R WCI  29
THREE RIVERS*  FAIR      30  24  78 E3        30.02R

$$
OHZ001>008-015>018-024>025-170000-
NORTHWEST OHIO

CITY           SKY/WX    TMP DP  RH WIND       PRES   REMARKS
WAUSEON*       FAIR      36  30  80 NE5       30.04R
DEFIANCE       CLEAR     34  26  72 NE3       30.03R
FINDLAY        CLEAR     40  28  62 CALM      30.03R
TOLEDO EXPRESS CLEAR     36  29  75 E5        30.05R
TOLEDO METCALF CLEAR     31  28  89 NE10      30.07R WCI  22
LIMA           CLEAR     41  29  62 SW7       30.02R

$$
AND FOR LAKE MICHIGAN COASTAL AND OPEN LAKE BUOY OBSERVATIONS

STATION/POSITION TEMP    WIND        PRES    VSBY  WAVE
                 AIR SEA DIR/SP/G                  HT/PER
                 (F)     (DEG/KT/KT) (MB)    (MI)  (FT/S)
CALUMET HARBOR    38      50/  4/  7 1014.4R
MICHIGAN CITY     38      50/  9/  9   N/A
BURNS HARBOR      38      90/  3/ 11 1015.9
SAINT JOSEPH      37     100/  1/  2 1016.3

$$
&&



USA.gov is the U.S. government's official web portal to all federal, state and local government web resources and services.